Terug naar catalogus

GRBBeta

ActiefAmateurradioVLEO
NORAD 60237·PAYLOAD·🇸🇰 Slovakia

Gelanceerd Jul 9, 2024 vanaf Guiana Space Centre

Loading…

Volgende Passages (komende 24 uur)

TLE

VersSource: AMSAT

Epoch: Sep 14, 2026, 12:51 UTC

1 60237U 24128C   26257.53551428  .00002351  00000-0  16864-3 0  9999
2 60237  61.9881 262.6541 0027536 154.3428 205.9038 15.07170935119735

Volg GRBBeta in realtime met AllMySat

Download on the App Store